| time (UTC) | temp C | wind direction | speed KPH | gust KPH | rain 1hr cm | rain 24hr cm | rain mn cm | humidity % | barometer mb |
| 20260508105421 | 7 | 0.0 | 0.0 | 0.00 | 0.00 | 0.00 | 79 | 1014.4 | |
| 20260508104346 | -17 | 113 | 1.6 | 3.2 | 0.00 | 0.00 | 0.00 | 1014.4 | |
| 20260508103326 | 7 | 0.0 | 0.0 | 0.00 | 0.00 | 0.00 | 81 | 1014.4 | |
| 20260508102251 | 6 | 0.0 | 0.0 | 0.00 | 0.00 | 0.00 | 84 | 1014.5 | |
| 20260508101248 | 6 | 0.0 | 0.0 | 0.00 | 0.00 | 0.00 | 86 | 1014.4 | |
| 20260508100151 | 6 | 0.0 | 0.0 | 0.00 | 0.00 | 0.00 | 86 | 1014.3 | |
| 20260508095132 | 5 | 0.0 | 0.0 | 0.00 | 0.00 | 0.00 | 86 | 1014.5 | |
| 20260508094115 | 5 | 0.0 | 0.0 | 0.00 | 0.00 | 0.00 | 85 | 1014.5 | |
| 20260508093031 | 5 | 0.0 | 0.0 | 0.00 | 0.00 | 0.00 | 85 | 1014.5 | |
| 20260508091949 | 5 | 0.0 | 0.0 | 0.00 | 0.00 | 0.00 | 84 | 1014.6 | |
| 20260508090920 | 5 | 0.0 | 0.0 | 0.00 | 0.00 | 0.00 | 84 | 1014.6 | |
| 20260508085858 | 5 | 0.0 | 0.0 | 0.00 | 0.00 | 0.00 | 84 | 1014.8 | |
| 20260508084905 | 6 | 0.0 | 0.0 | 0.00 | 0.00 | 0.00 | 83 | 1014.8 | |
| 20260508083801 | 6 | 0.0 | 0.0 | 0.00 | 0.00 | 0.00 | 82 | 1014.8 | |
| 20260508082723 | -17 | 0.0 | 0.0 | 0.00 | 0.00 | 0.00 | 1014.8 | ||
| 20260508081648 | 6 | 0.0 | 0.0 | 0.00 | 0.00 | 0.00 | 80 | 1014.8 | |
| 20260508080631 | 6 | 0.0 | 0.0 | 0.00 | 0.00 | 0.00 | 79 | 1014.8 | |
| 20260508075554 | 6 | 0.0 | 0.0 | 0.00 | 0.00 | 0.00 | 78 | 1014.8 | |
| 20260508074529 | 7 | 0.0 | 0.0 | 0.00 | 0.00 | 0.00 | 79 | 1014.8 | |
| 20260508073451 | 7 | 135 | 1.6 | 1.6 | 0.00 | 0.00 | 0.00 | 79 | 1014.9 |
| 20260508072426 | 7 | 0.0 | 0.0 | 0.00 | 0.00 | 0.00 | 77 | 1015.0 | |
| 20260508071358 | 7 | 1.6 | 6.4 | 0.00 | 0.00 | 0.00 | 77 | 1015.1 | |
| 20260508070332 | 7 | 135 | 3.2 | 3.2 | 0.00 | 0.00 | 0.00 | 75 | 1015.1 |
| 20260508065257 | 7 | 135 | 3.2 | 4.8 | 0.00 | 0.00 | 0.00 | 74 | 1015.0 |
| 20260508064220 | 7 | 135 | 3.2 | 4.8 | 0.00 | 0.00 | 0.00 | 76 | 1015.0 |
| 20260508063155 | 7 | 0.0 | 0.0 | 0.00 | 0.00 | 0.00 | 77 | 1015.0 | |
| 20260508062126 | 7 | 0.0 | 0.0 | 0.00 | 0.00 | 0.00 | 76 | 1015.0 | |
| 20260508061049 | 7 | 0.0 | 0.0 | 0.00 | 0.00 | 0.00 | 76 | 1015.0 | |
| 20260508060025 | 7 | 0.0 | 0.0 | 0.00 | 0.00 | 0.00 | 76 | 1015.0 | |
| 20260508055007 | 7 | 0.0 | 0.0 | 0.00 | 0.00 | 0.00 | 76 | 1015.3 | |
| 20260508053923 | 7 | 0.0 | 0.0 | 0.00 | 0.00 | 0.00 | 76 | 1015.5 | |
| 20260508052846 | -17 | 0.0 | 0.0 | 0.00 | 0.00 | 0.00 | 1015.5 | ||
| 20260508051823 | 7 | 135 | 1.6 | 3.2 | 0.00 | 0.00 | 0.00 | 76 | 1015.5 |
| 20260508050750 | 7 | 0.0 | 0.0 | 0.00 | 0.00 | 0.00 | 75 | 1015.5 | |
| 20260508045728 | 7 | 0.0 | 0.0 | 0.00 | 0.00 | 0.00 | 75 | 1015.7 | |
| 20260508044650 | 7 | 0.0 | 0.0 | 0.00 | 0.00 | 0.00 | 75 | 1015.5 | |
| 20260508043632 | 7 | 0.0 | 0.0 | 0.00 | 0.00 | 0.00 | 75 | 1015.7 | |
| 20260508042549 | 7 | 0.0 | 0.0 | 0.00 | 0.00 | 0.00 | 75 | 1015.7 | |
| 20260508041519 | 7 | 0.0 | 0.0 | 0.00 | 0.00 | 0.00 | 74 | 1015.7 | |
| 20260508040459 | 6 | 0.0 | 0.0 | 0.00 | 0.00 | 0.00 | 74 | 1015.7 | |
| 20260508035420 | 6 | 0.0 | 0.0 | 0.00 | 0.00 | 0.00 | 75 | 1015.8 | |
| 20260508034222 | 6 | 0.0 | 0.0 | 0.00 | 0.00 | 0.00 | 75 | 1015.8 | |
| 20260508033206 | 6 | 0.0 | 3.2 | 0.00 | 0.00 | 0.00 | 74 | 1015.8 | |
| 20260508032118 | 5 | 135 | 1.6 | 3.2 | 0.00 | 0.00 | 0.00 | 77 | 1015.8 |
| 20260508031057 | 5 | 0.0 | 0.0 | 0.00 | 0.00 | 0.00 | 78 | 1015.7 | |
| 20260508030033 | 5 | 0.0 | 0.0 | 0.00 | 0.00 | 0.00 | 77 | 1015.8 | |
| 20260508024959 | 5 | 0.0 | 0.0 | 0.00 | 0.00 | 0.00 | 78 | 1015.8 | |
| 20260508023922 | 5 | 0.0 | 3.2 | 0.00 | 0.00 | 0.00 | 77 | 1015.8 | |
| 20260508022900 | 5 | 0.0 | 0.0 | 0.00 | 0.00 | 0.00 | 77 | 1015.8 | |
| 20260508021827 | 5 | 0.0 | 0.0 | 0.00 | 0.00 | 0.00 | 76 | 1015.5 | |
| 20260508020805 | 5 | 135 | 0.0 | 1.6 | 0.00 | 0.00 | 0.00 | 76 | 1015.5 |
| 20260508015726 | 6 | 0.0 | 0.0 | 0.00 | 0.00 | 0.00 | 73 | 1015.5 | |
| 20260508014649 | 6 | 0.0 | 0.0 | 0.00 | 0.00 | 0.00 | 72 | 1015.5 | |
| 20260508013718 | 6 | 0.0 | 0.0 | 0.00 | 0.00 | 0.00 | 69 | 1015.3 | |
| 20260508012552 | 7 | 0.0 | 0.0 | 0.00 | 0.00 | 0.00 | 66 | 1015.3 | |
| 20260508011532 | 7 | 0.0 | 0.0 | 0.00 | 0.00 | 0.00 | 65 | 1015.3 | |
| 20260508010457 | 8 | 0.0 | 0.0 | 0.00 | 0.00 | 0.00 | 62 | 1015.1 | |
| 20260508005423 | 8 | 0.0 | 0.0 | 0.00 | 0.00 | 0.00 | 58 | 1015.1 | |
| 20260508004346 | 9 | 0.0 | 0.0 | 0.00 | 0.00 | 0.00 | 56 | 1015.1 | |
| 20260508003335 | 10 | 0.0 | 0.0 | 0.00 | 0.00 | 0.00 | 51 | 1015.1 | |
| 20260508002311 | 11 | 0.0 | 0.0 | 0.00 | 0.00 | 0.00 | 48 | 1015.0 | |
| 20260508001229 | 11 | 0.0 | 1.6 | 0.00 | 0.00 | 0.00 | 46 | 1014.9 | |
| 20260508000154 | 11 | 0.0 | 0.0 | 0.00 | 0.00 | 0.00 | 45 | 1014.8 | |
| 20260507235119 | 12 | 135 | 3.2 | 3.2 | 0.00 | 0.00 | 0.00 | 44 | 1014.8 |
| 20260507234100 | 12 | 135 | 1.6 | 4.8 | 0.00 | 0.00 | 0.00 | 44 | 1014.8 |
| 20260507233020 | 12 | 162 | 3.2 | 6.4 | 0.00 | 0.00 | 0.00 | 43 | 1014.6 |
| 20260507232001 | 12 | 113 | 3.2 | 3.2 | 0.00 | 0.00 | 0.00 | 42 | 1014.6 |
| 20260507230944 | 12 | 158 | 3.2 | 4.8 | 0.00 | 0.00 | 0.00 | 41 | 1014.9 |
| 20260507225848 | 13 | 158 | 3.2 | 3.2 | 0.00 | 0.00 | 0.00 | 42 | 1014.9 |
| 20260507224825 | 13 | 234 | 3.2 | 4.8 | 0.00 | 0.00 | 0.00 | 42 | 1014.9 |
| 20260507223811 | 13 | 135 | 3.2 | 3.2 | 0.00 | 0.00 | 0.00 | 42 | 1014.9 |
| 20260507222742 | 13 | 113 | 3.2 | 4.8 | 0.00 | 0.00 | 0.00 | 42 | 1014.8 |
| 20260507221657 | 13 | 242 | 3.2 | 4.8 | 0.00 | 0.00 | 0.00 | 40 | 1015.0 |
| 20260507220649 | 13 | 188 | 3.2 | 4.8 | 0.00 | 0.00 | 0.00 | 41 | 1014.8 |
| 20260507215554 | 13 | 247 | 3.2 | 4.8 | 0.00 | 0.00 | 0.00 | 39 | 1014.8 |
| 20260507214539 | 13 | 158 | 3.2 | 4.8 | 0.00 | 0.00 | 0.00 | 42 | 1014.8 |
| 20260507213507 | 13 | 203 | 4.8 | 6.4 | 0.00 | 0.00 | 0.00 | 42 | 1014.6 |
| 20260507212427 | 13 | 285 | 3.2 | 4.8 | 0.00 | 0.00 | 0.00 | 45 | 1014.8 |
| 20260507211350 | 13 | 270 | 6.4 | 6.4 | 0.00 | 0.00 | 0.00 | 47 | 1014.6 |
| 20260507210332 | 13 | 221 | 3.2 | 4.8 | 0.00 | 0.00 | 0.00 | 50 | 1014.4 |
| 20260507205249 | 13 | 135 | 4.8 | 4.8 | 0.00 | 0.00 | 0.00 | 51 | 1014.4 |
| 20260507204228 | 12 | 135 | 3.2 | 4.8 | 0.00 | 0.00 | 0.00 | 53 | 1014.4 |
| 20260507203153 | 11 | 158 | 1.6 | 4.8 | 0.00 | 0.00 | 0.00 | 56 | 1014.4 |
| 20260507202123 | 11 | 158 | 3.2 | 4.8 | 0.00 | 0.00 | 0.00 | 55 | 1014.4 |
| 20260507201051 | 12 | 254 | 3.2 | 4.8 | 0.00 | 0.00 | 0.00 | 54 | 1014.4 |
| 20260507200028 | 12 | 235 | 4.8 | 8.0 | 0.00 | 0.00 | 0.00 | 53 | 1014.1 |
| 20260507195007 | 13 | 113 | 3.2 | 4.8 | 0.00 | 0.00 | 0.00 | 51 | 1014.3 |
| 20260507193921 | 13 | 6 | 3.2 | 4.8 | 0.00 | 0.00 | 0.00 | 48 | 1014.3 |
| 20260507192850 | 13 | 201 | 3.2 | 4.8 | 0.00 | 0.00 | 0.00 | 48 | 1014.3 |
| 20260507191855 | 13 | 113 | 3.2 | 4.8 | 0.00 | 0.00 | 0.00 | 48 | 1014.3 |
| 20260507190841 | 14 | 261 | 4.8 | 8.0 | 0.00 | 0.00 | 0.00 | 47 | 1014.5 |
| 20260507185734 | 14 | 158 | 1.6 | 3.2 | 0.00 | 0.00 | 0.00 | 53 | 1014.5 |
| 20260507184727 | 13 | 158 | 1.6 | 1.6 | 0.00 | 0.00 | 0.00 | 53 | 1014.5 |
| 20260507183623 | 13 | 158 | 3.2 | 3.2 | 0.00 | 0.00 | 0.00 | 56 | 1014.6 |
| 20260507182612 | 13 | 212 | 4.8 | 6.4 | 0.00 | 0.00 | 0.00 | 54 | 1014.8 |
| 20260507181524 | 12 | 135 | 3.2 | 4.8 | 0.00 | 0.00 | 0.00 | 55 | 1014.8 |
| 20260507180534 | 12 | 101 | 3.2 | 4.8 | 0.00 | 0.00 | 0.00 | 57 | 1014.6 |
| 20260507175432 | 12 | 158 | 3.2 | 4.8 | 0.00 | 0.00 | 0.00 | 53 | 1014.8 |
| 20260507174356 | 12 | 187 | 3.2 | 3.2 | 0.00 | 0.00 | 0.00 | 52 | 1014.8 |
| 20260507173340 | 12 | 135 | 3.2 | 4.8 | 0.00 | 0.00 | 0.00 | 51 | 1014.8 |
| 20260507172300 | 13 | 135 | 3.2 | 4.8 | 0.00 | 0.00 | 0.00 | 50 | 1014.8 |
| 20260507171241 | 13 | 158 | 3.2 | 4.8 | 0.00 | 0.00 | 0.00 | 51 | 1014.8 |
| 20260507170205 | 13 | 158 | 3.2 | 6.4 | 0.00 | 0.00 | 0.00 | 52 | 1014.9 |
| 20260507165126 | 13 | 158 | 3.2 | 4.8 | 0.00 | 0.00 | 0.00 | 52 | 1014.9 |
| 20260507164115 | 13 | 158 | 4.8 | 6.4 | 0.00 | 0.00 | 0.00 | 53 | 1014.9 |
| 20260507163033 | 13 | 158 | 3.2 | 4.8 | 0.00 | 0.00 | 0.00 | 55 | 1014.9 |
| 20260507161957 | 13 | 0.0 | 1.6 | 0.00 | 0.00 | 0.00 | 58 | 1015.0 | |
| 20260507160954 | 11 | 135 | 3.2 | 4.8 | 0.00 | 0.00 | 0.00 | 59 | 1015.0 |
| 20260507155918 | 12 | 135 | 3.2 | 4.8 | 0.00 | 0.00 | 0.00 | 52 | 1015.0 |
| 20260507154823 | 11 | 135 | 3.2 | 3.2 | 0.00 | 0.00 | 0.00 | 52 | 1015.0 |
| 20260507153747 | 12 | 135 | 3.2 | 4.8 | 0.00 | 0.00 | 0.00 | 52 | 1015.0 |
| 20260507152723 | 13 | 135 | 3.2 | 3.2 | 0.00 | 0.00 | 0.00 | 50 | 1015.0 |
| 20260507151648 | 13 | 135 | 3.2 | 3.2 | 0.00 | 0.00 | 0.00 | 52 | 1015.3 |
| 20260507150630 | 13 | 135 | 1.6 | 3.2 | 0.00 | 0.00 | 0.00 | 53 | 1015.1 |
| 20260507145613 | 12 | 135 | 1.6 | 3.2 | 0.00 | 0.00 | 0.00 | 57 | 1015.1 |
| 20260507144541 | 12 | 0.0 | 0.0 | 0.00 | 0.00 | 0.00 | 53 | 1015.1 | |
| 20260507143500 | 12 | 135 | 3.2 | 3.2 | 0.00 | 0.00 | 0.00 | 56 | 1015.3 |
| 20260507142429 | 12 | 135 | 1.6 | 3.2 | 0.00 | 0.00 | 0.00 | 55 | 1015.3 |
| 20260507141411 | 12 | 135 | 3.2 | 3.2 | 0.00 | 0.00 | 0.00 | 59 | 1015.3 |
| 20260507140330 | 12 | 0.0 | 1.6 | 0.00 | 0.00 | 0.00 | 63 | 1015.5 | |
| 20260507135248 | 11 | 1.6 | 3.2 | 0.00 | 0.00 | 0.00 | 64 | 1015.7 | |
| 20260507134224 | 11 | 0.0 | 3.2 | 0.00 | 0.00 | 0.00 | 65 | 1015.7 | |
| 20260507133202 | 11 | 0.0 | 0.0 | 0.00 | 0.00 | 0.00 | 66 | 1015.8 | |
| 20260507132125 | 10 | 0.0 | 0.0 | 0.00 | 0.00 | 0.00 | 66 | 1015.8 | |
| 20260507131101 | 11 | 0.0 | 0.0 | 0.00 | 0.00 | 0.00 | 70 | 1015.8 | |
| 20260507130031 | 10 | 135 | 0.0 | 1.6 | 0.00 | 0.00 | 0.00 | 70 | 1015.8 |
| 20260507125031 | 10 | 0.0 | 0.0 | 0.00 | 0.00 | 0.00 | 69 | 1015.8 | |
| 20260507123948 | 10 | 1.6 | 3.2 | 0.00 | 0.00 | 0.00 | 71 | 1015.8 | |
| 20260507122859 | 9 | 0.0 | 0.0 | 0.00 | 0.00 | 0.00 | 68 | 1015.8 | |
| 20260507121823 | 8 | 0.0 | 0.0 | 0.00 | 0.00 | 0.00 | 70 | 1015.7 | |
| 20260507120746 | 8 | 135 | 1.6 | 3.2 | 0.00 | 0.00 | 0.00 | 69 | 1015.7 |
| 20260507115725 | 8 | 135 | 3.2 | 3.2 | 0.00 | 0.00 | 0.00 | 69 | 1015.7 |
| 20260507114648 | 8 | 135 | 0.0 | 1.6 | 0.00 | 0.00 | 0.00 | 73 | 1015.5 |
| 20260507113629 | 7 | 0.0 | 0.0 | 0.00 | 0.00 | 0.00 | 73 | 1015.5 | |
| 20260507112549 | 6 | 0.0 | 0.0 | 0.00 | 0.00 | 0.00 | 77 | 1015.5 | |
| 20260507111519 | 4 | 0.0 | 0.0 | 0.00 | 0.00 | 0.00 | 86 | 1015.5 | |
| 20260507110501 | 3 | 0.0 | 0.0 | 0.00 | 0.00 | 0.00 | 86 | 1015.3 |